User: anonymous   Login
Location: Cluny
(50.9333°N, 112.8167°W)
Time: 23:41:33
(UTC-07:00)
Language:

Cosmos 1743 Rocket - Orbit

View from above orbital plane
View from above orbital plane
View from above satellite
View from above satellite

Ground track
Ground track

The orbit data is extracted from the following two-line orbital elements,

1 16720U 86034B   14353.55432825  .00000706  00000-0  83958-4 0  6398
2 16720 082.5534 010.3176 0019666 221.0853 254.1862 14.82915305544281
Epoch (UTC): 19 December 2014 13:18:13
Eccentricity: 0.0019666
inclination: 82.5534°
perigee height: 606 km
apogee height: 634 km
right ascension of ascending node: 10.3176°
argument of perigee: 221.0853°
revolutions per day: 14.82915305
mean anomaly at epoch: 254.1862°
orbit number at epoch: 54428

The dashed part of the orbit path shows where the satellite is in the earth's shadow,  

DLR